Retour au catalogue

STARLINK-2217

ActifCommunicationsVLEO
NORAD 48568·PAYLOAD·🇺🇸 United States

Lancé May 15, 2021 depuis Cape Canaveral Space Force Station

Loading…

Prochains Passages (prochaines 24 heures)

TLE

FraisSource: CelesTrak SupGP

Époque: Sep 14, 2026, 14:31 UTC

1 48568C 21041R   26257.60534722  .00043929  00000+0  14122-2 0  2575
2 48568  53.1589 327.9754 0001090  77.5192 254.6004 15.31689824    11

Suivez STARLINK-2217 en temps réel avec AllMySat

Download on the App Store